[[{"header":{"parameterUnit":"m.s-1","parameterCategory":1,"la1":30.2992,"la2":30.254,"lo1":-89.0895,"lo2":-89.0443,"dy":0.0025,"dx":0.0025,"nx":19,"ny":19,"refTime":"2026-05-17T21:00:00:Z","depth":0,"parameterNumber":2,"parameterNumberName":"U-component_of_WINDS"},"data":[0,0,0,-2.9939,-2.9941,-3.002,-3.002,-3.014,-3.0141,0,0,0,0,0,0,0,0,0,0,0,-2.9925,-2.9926,-2.9939,-2.9941,-3.002,-3.002,-3.014,-3.0141,0,0,0,0,0,0,0,0,0,0,0,-2.9924,-2.9925,-2.9927,-2.9942,-3.002,-3.002,-3.014,-3.0074,0,0,0,0,0,0,0,0,0,0,-2.9995,-2.9989,-2.9925,-2.9927,-2.9942,-3.002,-3.002,-3.0071,-3.0078,-3.0112,0,-3.0141,0,-3.0143,-3.015,-3.0151,0,0,0,-2.9936,-2.9982,-2.9996,-2.9927,-2.9943,-3.0019,-2.9983,-3.0075,-3.0083,-3.0122,-3.0143,-3.0147,-3.0145,-3.0151,-3.0152,-3.0361,-3.0362,0,0,-2.9931,-2.9944,-2.999,-3.0002,-2.9987,-2.998,-2.9985,-3.008,-3.0104,-3.0143,-3.015,-3.0147,-3.0152,-3.0153,-3.036,-3.0361,0,0,0,-2.9923,-2.9941,-2.9952,-2.9997,-3.001,-2.9983,-2.9988,-3.01,-3.0102,-3.0151,-3.0149,-3.0153,-3.0155,-3.0358,-3.036,-3.0432,0,0,0,-2.992,-2.9936,-2.995,-2.9959,-3.0008,-3.0055,-3.0007,-3.0096,-3.0106,-3.0148,-3.0153,-3.0156,-3.0357,-3.0359,-3.0427,-3.0464,0,0,0,-2.9917,-2.9935,-2.9949,-2.9959,-2.9993,-3.0053,-3.0061,-3.0098,-3.0105,-3.0151,-3.0156,-3.0356,-3.0359,-3.0423,-3.0456,-3.0522,0,0,0,-2.9917,-3.0012,-2.9951,-3.0057,-2.9992,-3.0097,-3.006,-3.0138,-3.0186,-3.0154,-3.0357,-3.036,-3.0421,-3.0452,-3.0517,-3.0578,-3.0605,0,0,-3.0044,-3.0028,-3.009,-3.0037,-3.0155,-3.0084,-3.0215,-3.0247,-3.0242,-3.0323,-3.0328,-3.0429,-3.0456,-3.0521,-3.0754,-3.0775,0,0,0,-3.0134,-3.0179,-3.0208,-3.0253,-3.028,-3.0308,-3.032,-3.0333,-3.0401,-3.0285,-3.0471,-3.0487,-3.0525,-3.0553,-3.0571,-3.0603,-3.0374,-3.0374,-3.0374,-3.0329,-3.0317,-3.0419,-3.0418,-3.0464,-3.0477,-3.0514,-3.0534,-3.0509,-3.0554,-3.0576,-3.0718,-3.0752,-3.0766,-3.0799,-3.0609,-3.0609,-3.061,-3.061,-3.0513,-3.0574,-3.0541,-3.0627,-3.0616,-3.069,-3.0709,-3.069,-3.0759,-3.0699,-3.0732,-3.0666,-3.0789,-3.0818,-3.0615,-3.0614,-3.0614,-3.0613,-3.0613,-3.0637,-3.0664,-3.0679,-3.0746,-3.0801,-3.0798,-3.0867,-3.0855,-3.0845,-3.0877,-3.0901,-3.09,-3.0896,-3.089,-3.0891,-3.0891,-3.0891,-3.0892,-3.0892,-3.0759,-3.0774,-3.0831,-3.0872,-3.0901,-3.0939,-3.0958,-3.0988,-3.1019,-3.1005,-3.1005,-3.0977,-3.0804,-3.076,-3.09,-3.0898,-3.0897,-3.0897,-3.0896,-3.0946,-3.0903,-3.0991,-3.1021,-3.107,-3.1126,-3.1112,-3.1176,-3.1199,-3.1235,-3.1201,-3.1076,-3.1058,-3.1044,-3.1007,-3.1203,-3.1203,-3.1203,-3.1203,-3.1049,-3.104,-3.1129,-3.1179,-3.1226,-3.1224,-3.1329,-3.1348,-3.136,-3.1375,-3.1346,-3.1298,-3.1284,-3.1275,-3.1255,-3.1221,-3.1466,-3.1466,-3.1467,-3.1163,-3.1159,-3.1248,-3.1258,-3.1297,-3.1332,-3.1431,-3.1492,-3.1498,-3.1477,-3.1387,-3.1376,-3.1297,-3.1272,-3.1244,-3.1214,-3.1151,0,0]},{"header":{"parameterUnit":"m.s-1","parameterCategory":1,"la1":30.2992,"la2":30.254,"lo1":-89.0895,"lo2":-89.0443,"dy":0.0025,"dx":0.0025,"nx":19,"ny":19,"refTime":"2026-05-17T21:00:00:Z","depth":0,"parameterNumber":3,"parameterNumberName":"V-component_of_WINDS"},"data":[0,0,0,2.212,2.212,2.2159,2.2159,2.2181,2.2181,0,0,0,0,0,0,0,0,0,0,0,2.2093,2.2093,2.212,2.212,2.2158,2.2159,2.2181,2.2181,0,0,0,0,0,0,0,0,0,0,0,2.2094,2.2093,2.2093,2.212,2.2158,2.2159,2.2181,2.2161,0,0,0,0,0,0,0,0,0,0,2.2129,2.209,2.2093,2.2093,2.2121,2.2158,2.2159,2.2161,2.2163,2.2153,0,2.2141,0,2.2161,2.2181,2.2181,0,0,0,2.2131,2.2088,2.2113,2.2093,2.2121,2.2158,2.2144,2.2162,2.2164,2.2155,2.2142,2.2143,2.2162,2.2181,2.2181,2.2092,2.2091,0,0,2.2129,2.2092,2.2111,2.2113,2.2107,2.2143,2.2145,2.2164,2.2146,2.2142,2.2144,2.2162,2.2181,2.2181,2.2093,2.2092,0,0,0,2.2116,2.209,2.2114,2.2111,2.212,2.2144,2.2147,2.2145,2.2157,2.2145,2.2162,2.2181,2.2181,2.2094,2.2093,2.2012,0,0,0,2.2115,2.2082,2.2113,2.209,2.212,2.2134,2.2127,2.2155,2.2159,2.2162,2.2181,2.2181,2.2095,2.2093,2.2016,2.1979,0,0,0,2.2096,2.208,2.2081,2.2088,2.2104,2.2134,2.2147,2.2157,2.2169,2.2181,2.2181,2.2096,2.2094,2.202,2.1986,2.1945,0,0,0,2.2065,2.2007,2.2079,2.2021,2.2103,2.2084,2.2147,2.2135,2.2136,2.2181,2.2095,2.2093,2.2021,2.199,2.1949,2.1904,2.1882,0,0,2.1971,2.1994,2.1964,2.2029,2.1989,2.2082,2.2029,2.2064,2.2098,2.2092,2.209,2.2015,2.1986,2.1946,2.1771,2.1753,0,0,0,2.1921,2.1899,2.1896,2.1896,2.1923,2.1942,2.199,2.2003,2.2,2.2088,2.1991,2.1975,2.1952,2.1932,2.1917,2.19,2.2082,2.2082,2.2083,2.1734,2.1783,2.1736,2.1789,2.1788,2.1839,2.1842,2.1869,2.1917,2.1893,2.1891,2.1779,2.1755,2.1743,2.1725,2.1872,2.1871,2.1871,2.1871,2.1601,2.1577,2.1644,2.1623,2.1674,2.1656,2.1702,2.1737,2.1727,2.1785,2.1767,2.1825,2.1722,2.1709,2.1865,2.1866,2.1867,2.1867,2.1868,2.1484,2.1481,2.1499,2.1505,2.1504,2.156,2.1548,2.1596,2.164,2.1623,2.1626,2.1628,2.1635,2.1621,2.1621,2.1621,2.162,2.162,2.162,2.1354,2.1378,2.1363,2.1387,2.1394,2.1409,2.146,2.1468,2.1488,2.1524,2.1524,2.1574,2.1704,2.1735,2.1614,2.1615,2.1616,2.1616,2.1617,2.12,2.1243,2.1219,2.1226,2.126,2.1255,2.1317,2.1329,2.1342,2.1334,2.1389,2.1478,2.1504,2.1516,2.1542,2.1379,2.1379,2.1379,2.1379,2.1101,2.112,2.1107,2.1115,2.1128,2.1182,2.1152,2.1192,2.1239,2.125,2.1281,2.132,2.133,2.1351,2.1367,2.1392,2.1194,2.1193,2.1193,2.1009,2.1031,2.0998,2.1046,2.1076,2.11,2.1074,2.108,2.1142,2.1187,2.126,2.1267,2.1331,2.1349,2.1393,2.1417,2.1464,0,0]}]]